TimeMST,TemperatureF,Dew PointF,Humidity,Sea Level PressureIn,VisibilityMPH,Wind Direction,Wind SpeedMPH,Gust SpeedMPH,PrecipitationIn,Events,Conditions,WindDirDegrees,DateUTC
12:58 AM,72.9,26.1,18,29.95,10.0,ESE,10.4,-,N/A,,Clear,120,2013-05-13 07:58:00
1:58 AM,72.1,26.8,18,29.95,10.0,SE,9.2,-,N/A,,Clear,140,2013-05-13 08:58:00
2:58 AM,70.0,27.5,20,29.95,10.0,SSE,10.4,-,N/A,,Clear,150,2013-05-13 09:58:00
3:58 AM,68.5,27.5,22,29.95,10.0,SE,11.5,-,N/A,,Clear,140,2013-05-13 10:58:00
4:58 AM,69.1,29.1,23,29.96,10.0,SE,8.1,-,N/A,,Clear,130,2013-05-13 11:58:00
5:58 AM,68.9,28.9,23,29.98,10.0,NE,1.2,-,N/A,,Clear,40,2013-05-13 12:58:00
6:58 AM,76.6,30.6,18,29.98,10.0,ESE,11.5,-,N/A,,Clear,110,2013-05-13 13:58:00
7:58 AM,80.1,30.6,17,29.99,10.0,ESE,11.5,-,N/A,,Clear,120,2013-05-13 14:58:00
8:58 AM,83.1,31.5,15,30.00,10.0,ESE,12.7,20.7,N/A,,Clear,110,2013-05-13 15:58:00
9:58 AM,85.6,30.7,14,29.98,10.0,ESE,10.4,-,N/A,,Clear,110,2013-05-13 16:58:00
10:47 AM,87.8,32.0,14,30.10,10.0,East,17.3,21.9,N/A,,Clear,80,2013-05-13 17:47:00
10:48 AM,87.8,30.2,13,30.10,10.0,NE,13.8,21.9,N/A,,Clear,40,2013-05-13 17:48:00
10:58 AM,88.0,29.8,12,29.96,10.0,Variable,3.5,-,N/A,,Clear,0,2013-05-13 17:58:00
11:58 AM,89.6,29.1,11,29.95,10.0,ESE,10.4,24.2,N/A,,Clear,120,2013-05-13 18:58:00
1:58 PM,91.6,24.1,9,29.90,10.0,SSE,8.1,-,N/A,,Clear,160,2013-05-13 20:58:00
2:58 PM,93.2,21.0,7,29.87,10.0,NE,15.0,21.9,N/A,,Partly Cloudy,50,2013-05-13 21:58:00
3:22 PM,93.2,21.2,7,29.99,10.0,North,13.8,19.6,N/A,,Clear,360,2013-05-13 22:22:00
3:25 PM,93.2,21.2,7,29.99,10.0,NE,13.8,19.6,N/A,,Clear,40,2013-05-13 22:25:00
3:26 PM,93.2,21.2,7,29.99,10.0,NE,12.7,19.6,N/A,,Clear,50,2013-05-13 22:26:00
3:45 PM,93.2,21.2,7,29.98,10.0,NE,16.1,25.3,N/A,,Clear,50,2013-05-13 22:45:00
3:58 PM,93.2,20.3,7,29.86,10.0,NNE,6.9,-,N/A,,Clear,30,2013-05-13 22:58:00
4:04 PM,93.2,19.4,7,29.97,10.0,ENE,15.0,-,N/A,,Clear,60,2013-05-13 23:04:00
4:58 PM,92.7,18.5,7,29.84,10.0,ENE,16.1,19.6,N/A,,Clear,60,2013-05-13 23:58:00
5:58 PM,91.6,19.8,7,29.83,10.0,ENE,10.4,-,N/A,,Clear,60,2013-05-14 00:58:00
6:58 PM,89.4,18.1,7,29.83,10.0,NE,6.9,-,N/A,,Clear,50,2013-05-14 01:58:00
7:58 PM,83.8,17.1,8,29.85,10.0,East,6.9,-,N/A,,Clear,100,2013-05-14 02:58:00
8:58 PM,81.5,12.2,7,29.86,10.0,ENE,5.8,-,N/A,,Clear,70,2013-05-14 03:58:00
9:58 PM,78.4,15.6,9,29.87,10.0,SE,12.7,-,N/A,,Clear,130,2013-05-14 04:58:00
10:58 PM,76.1,13.6,9,29.87,10.0,SE,11.5,-,N/A,,Scattered Clouds,130,2013-05-14 05:58:00
11:58 PM,75.7,13.5,9,29.87,10.0,SE,10.4,-,N/A,,Mostly Cloudy,130,2013-05-14 06:58:00